Hourly Data Report for February 10, 2021

TORONTO CITY
ONTARIO
Current Station Operator: ECCC - MSC

43°40'00.000" N
79°24'00.000" W
112.50 m
6158355
71508
XTO

Download Data

Hourly Data (February 2021)
Hourly Data Report for February 10, 2021
TIME
LST
Temp Definition
°C
Dew Point Definition
°C
Rel Hum Definition
%
Precip. Amount Definition
mm

Wind Dir Definition
10's deg

Wind Spd Definition
km/h
Visibility Definition
km
Stn Press Definition
kPa
Hmdx Definition


Wind Chill Definition


Weather Definition


00:00 -7.9 -14.1 61 0.0       101.23     LegendNANA
01:00 -8.3 -14.6 61 0.0       101.27     LegendNANA
02:00 -8.8 -14.9 61 0.0       101.24     LegendNANA
03:00 -9.3 -15.0 63 0.0       101.24     LegendNANA
04:00 -9.4 -14.8 65 0.0       101.26     LegendNANA
05:00 -9.7 -15.2 64 0.0       101.31     LegendNANA
06:00 -9.8 -15.0 66 0.0       101.36     LegendNANA
07:00 -9.5 -15.0 64 0.0       101.37     LegendNANA
08:00 -9.2 -14.7 64 0.0       101.41     LegendNANA
09:00 -7.5 -15.2 54 0.0       101.45     LegendNANA
10:00 -6.6 -15.5 49 0.0       101.47     LegendNANA
11:00 -6.3 -14.8 51 0.0       101.45     LegendNANA
12:00 -5.5 -15.0 47 0.0       101.41     LegendNANA
13:00 -4.5 -14.3 46 0.0       101.32     LegendNANA
14:00 -4.6 -15.2 43 0.0       101.24     LegendNANA
15:00 -4.8 -15.1 44 0.0       101.24     LegendNANA
16:00 -4.6 -14.6 46 0.0       101.22     LegendNANA
17:00 -5.2 -14.3 49 0.0       101.21     LegendNANA
18:00 -5.4 -13.9 51 0.0       101.21     LegendNANA
19:00 -5.8 -13.7 54 0.0       101.19     LegendNANA
20:00 -5.9 -13.6 54 0.0       101.21     LegendNANA
21:00 -6.0 -13.2 56 0.0       101.21     LegendNANA
22:00 -6.0 -13.3 57 0.0       101.19     LegendNANA
23:00 -6.2 -12.7 60 0.0       101.18     LegendNANA

Notes on Data Quality.

Legend

  • E = Estimated
  • M = Missing
  • NA = Not Available*
  • [empty] = Indicates an unobserved value
Date modified: